Regional Weather Roundup
Issued by NWS Wilmington, NC

Home | Current Version | Previous Version | Text Only | Print | Product List | Glossary On
Versions: 1 2 3 4 5 6 7 8 9 10 11 12 13 14 15 16 17 18 19 20 21 22 23 24 25 26 27
000
ASUS42 KILM 260413
RWRILM
RWRILM
REGIONAL HOURLY WEATHER ROUNDUP
NATIONAL WEATHER SERVICE WILMINGTON NC
1200 AM EDT MON JUN 26 2017

NOTE: "FAIR" INDICATES FEW OR NO CLOUDS BELOW 12,000 FEET WITH NO
SIGNIFICANT WEATHER AND/OR OBSTRUCTIONS TO VISIBILITY.

...............WFO WILMINGTON COUNTY WARNING AREA...............

......COASTAL NC AND SC COUNTIES......

CITY           SKY/WX    TMP DP  RH WIND       PRES   REMARKS
WILMINGTON     PTCLDY    73  70  90 NW3       30.07S
N MYRTLE BEACH CLOUDY    75  75 100 CALM      30.07S
MYRTLE BEACH   CLOUDY    75  74  96 SW3       30.09

......INLAND NC AND SC COUNTIES.......

CITY           SKY/WX    TMP DP  RH WIND       PRES   REMARKS
LUMBERTON      CLOUDY    76  72  87 CALM      30.08R
ELIZABETHTOWN  NOT AVBL
WHITEVILLE     CLOUDY    73  72  96 CALM      30.08S
FLORENCE       CLOUDY    77  70  79 N7        30.09R
DARLINGTON     PTCLDY    75  68  78 N3        30.11R
KINGSTREE      CLOUDY    73  72  94 CALM      30.09R
HARTSVILLE       N/A     73  64  73 MISG      30.10S
BENNETTSVILLE  FAIR      77  68  73 CALM      30.09R
CONWAY         MOCLDY    72  72 100 CALM      30.09R FOG
GEORGETOWN     FAIR      72  72 100 CALM      30.09S
MARION         CLOUDY    73  72  94 CALM      30.08S

....................REST OF NORTH CAROLINA......................

.........EASTERN NC.........

CITY           SKY/WX    TMP DP  RH WIND       PRES   REMARKS
CAPE HATTERAS  MOCLDY    78  73  84 W6        30.03F
JACKSONVILLE   NOT AVBL
MOREHEAD CITY  CLOUDY    79  77  94 SW7       30.06R
KENANSVILLE    CLOUDY    72  70  94 CALM      30.08S
NEW BERN       PTCLDY    74  74 100 S3        30.07S
ELIZABETH CITY CLOUDY    75  66  73 NW9       30.04S

.........CENTRAL NC.........

CITY           SKY/WX    TMP DP  RH WIND       PRES   REMARKS
RALEIGH DURHAM MOCLDY    71  65  81 CALM      30.11R
ROCKY MOUNT    MOCLDY    71  64  78 CALM      30.08S
ROANOKE RAPIDS NOT AVBL
FAYETTEVILLE   CLOUDY    80  67  64 N5        30.08R
HOFFMAN        MOCLDY    70  68  92 CALM      30.10S

.........WESTERN NC.........

CITY           SKY/WX    TMP DP  RH WIND       PRES   REMARKS
CHARLOTTE      PTCLDY    68  59  73 N5        30.14S
GREENSBORO     PTCLDY    67  60  78 NW6       30.14R
HICKORY        NOT AVBL
BOONE          NOT AVBL
ASHEVILLE      NOT AVBL

.....................REST OF SOUTH CAROLINA.....................

.........EASTERN SC.........

CITY           SKY/WX    TMP DP  RH WIND       PRES   REMARKS
CHARLESTON     CLOUDY    75  73  93 CALM      30.08S
BEAUFORT MCAS  CLOUDY    76  76 100 CALM      30.09R
HILTON HEAD    DRIZZLE   77  77 100 CALM      30.09R

.........CENTRAL SC.........

CITY           SKY/WX    TMP DP  RH WIND       PRES   REMARKS
COLUMBIA       CLOUDY    79  65  62 N6        30.09S
ORANGEBURG     CLOUDY    76  70  82 CALM      30.09R
SUMTER SHAW    CLOUDY    77  74  92 N3        30.07R

.........WESTERN SC.........

CITY           SKY/WX    TMP DP  RH WIND       PRES   REMARKS
GREENVILLE     NOT AVBL
ROCK HILL      CLEAR     66  62  87 N5        30.14S
ANDERSON       CLOUDY    72  58  61 NE5       30.14S
CLEMSON        NOT AVBL
GREENWOOD      MOCLDY    68  59  73 CALM      30.14R


...................COASTAL AND OFFSHORE REPORTS..................

................LOCAL PIERS AND NC RESERVE................


STATION/POSITION TIME  SKY/WX   TEMP    WIND        PRES    VSBY
                                AIR SEA DIR/SP/G
                 (UTC)          (F)     (DEG/KT/KT) (MB)    (MI)
JOHNY MRCER PIER 0348            74 80  300/  6/ 11 1017.2F
NC RESRV MASNBRO 0245            71        CALM     1019.0
OCEAN CREST PIER NOT AVBL
SPRINGMAID  PIER 0348                               1017.9S


................COASTAL AND OFFSHORE BUOYS................


STATION/POSITION TIME  SKY/WX   TEMP    WIND        PRES    VSBY
                                AIR SEA DIR/SP/G
                 (UTC)          (F)     (DEG/KT/KT) (MB)    (MI)
DIMNDSHOAL 41025 0350            78 80  250/ 12/ 14 1017.1F
WVE H/P(F/S)=  3/ 6 SWL H/P/D(F/S/D)=  2/190/ 6

CAPE LOOKOUT     0400            78     250/  8/ 10 1017.5R
ONSLOW BAY 41036 NOT AVBL
ONSLOW BAY 41064 0308            77 80  150/  6/ 10 1018.0F
ONSLOW BAY 41159 0343               80                N/A
WVE H/P(F/S)=  4/ 6

MASNBO INL 41110 0359               79                N/A
WVE H/P(F/S)=  2/ 6

WILM HARBR 41108 NOT AVBL
27SE WRITB 41037 0308            78 80  290/  4/  8 1017.5R
FRYING PAN 41013 0350            79 81  180/  4/  6 1017.8F
WVE H/P(F/S)=  3/ 6 SWL H/P/D(F/S/D)=  2/160/ 6

SUNST NRSH 41024 0308            77 79   10/  4/  6 1018.1R
CAPRS NRSH 41029 0308            84 83  140/  8/ 12 1018.1R
EDISTO     41004 0350            80 81  210/  8/ 10 1018.0S
WVE H/P(F/S)=  3/ 6 SWL H/P/D(F/S/D)=  2/130/ 6



..........OFFSHORE BUOYS BEYOND 100 NM OFFSHORE...........
.....IN A TRIANGLE---HAT TO BERMUDA TO BAHAMAS TO HAT.....


STATION/POSITION TIME  SKY/WX   TEMP    WIND        PRES    VSBY
                                AIR SEA DIR/SP/G
                 (UTC)          (F)     (DEG/KT/KT) (MB)    (MI)
150E HAT   41001 0400            79 79  230/ 14/ 19 1018.1
W BERMUDA  41048 0400            81 81  220/  8/ 10 1021.6
ATLANTIC S 41049 0350            81 83  120/  6/  8 1023.7F
WVE H/P(F/S)=  3/ 7 SWL H/P/D(F/S/D)=  3/100/ 7

E BAHAMAS  41046 0400            82 83  100/ 14/ 16 1021.3
NE BAHAMAS 41047 0350            82 83  130/  8/ 10 1021.5F
WVE H/P(F/S)=  3/ 8 SWL H/P/D(F/S/D)=  3/130/ 8

120E CANVRL41010 0350            82 84  150/ 12/ 16 1019.6R
WVE H/P(F/S)=  3/ 8 SWL H/P/D(F/S/D)=  2/120/ 8


END




USA.gov is the U.S. government's official web portal to all federal, state and local government web resources and services.